Location: Springfield
(37.2150°N, 93.2980°W)
Time: 01:44:13
(UTC-05:00)

Daily predictions for brighter satellites

Satellite Brightness Start Highest point End
(mag) Time Altitude Azimuth Time Altitude Azimuth Time Altitude Azimuth
USA 234 3.9 00:04:00 10° NE 00:10:18 53° NW 00:16:35 10° WSW
Cosmos 1821 Rocket 4.1 00:11:41 71° WNW 00:11:41 71° WNW 00:17:40 10° N
Cosmos 1605 Rocket 4.3 00:12:59 60° NE 00:12:59 60° NE 00:18:26 10° NNE
Cosmos 1943 Rocket 4.0 00:18:38 20° ENE 00:18:38 20° ENE 00:20:42 10° NE
Cosmos 1833 Rocket 4.2 00:11:30 10° NW 00:15:24 26° W 00:15:24 26° W
Cosmos 2285 Rocket 4.1 00:19:34 72° N 00:19:34 72° N 00:25:16 10° NNE
Cosmos 1934 Rocket 4.2 00:24:53 62° NW 00:24:53 62° NW 00:30:16 10° N
Terra 4.2 00:31:14 15° WNW 00:31:14 15° WNW 00:33:06 10° NW
Cosmos 2123 Rocket 4.2 00:24:57 10° N 00:30:22 67° NNW 00:30:22 67° NNW
Lacrosse 5 rocket 4.2 00:43:58 13° N 00:43:58 13° N 00:44:41 10° N
Lacrosse 5 3.6 00:56:43 28° NW 00:56:58 28° NW 01:01:23 10° NNE
CZ-2C R/B 4.4 01:20:59 33° NNE 01:20:59 33° NNE 01:23:59 10° N
Cosmos 2369 Rocket 3.8 01:23:58 26° WNW 01:24:00 26° WNW 01:28:41 10° N
CZ-2C R/B 3.6 01:29:57 10° N 01:33:24 42° N 01:33:24 42° N
Cosmos 2219 4.1 01:32:32 10° NNW 01:36:49 45° NNE 01:36:49 45° NNE
ATLAS 2AS CENTAUR R/B 2.9 01:38:14 10° NNW 01:46:07 86° NW 01:46:07 86° NW
Cosmos 1656 Rocket 4.5 01:51:46 49° N 01:51:46 49° N 01:55:50 10° NNE
Cosmos 2098 Rocket 4.3 01:54:53 75° NE 01:54:53 75° NE 02:01:53 10° N
Cosmos 2016 Rocket 4.4 01:56:08 54° NNW 01:56:08 54° NNW 02:01:02 10° N
Cosmos 1943 Rocket 3.6 02:00:09 31° NW 02:00:09 31° NW 02:04:27 10° N
SeaSat 1 3.4 02:40:59 43° NNW 02:40:59 43° NNW 02:44:17 10° NNW
BREEZE-M DEB (TANK) 4.4 02:40:06 10° NW 02:45:24 82° SW 03:11:21 10° SE
BREEZE-M DEB (TANK) 3.4 02:41:29 10° NW 02:51:47 62° NNE 02:52:03 60° NE
CZ-2D R/B 4.1 02:53:44 10° NE 02:57:33 19° E 02:59:09 17° ESE
SL-16 R/B 4.2 02:56:43 10° ESE 03:01:51 29° ENE 03:06:59 10° N
AQUA 4.2 03:00:35 10° NNE 03:04:34 60° NE 03:04:34 60° NE
Cosmos 1898 Rocket 3.8 03:01:53 10° NNW 03:07:11 63° ENE 03:07:33 62° E
Cosmos 1697 Rocket 3.4 03:08:37 42° ESE 03:09:00 43° ESE 03:14:20 10° NE
IRS-P3 4.3 03:09:09 10° N 03:14:06 62° NW 03:14:06 62° NW
Cosmos 2082 3.5 03:09:03 10° NNW 03:14:43 87° ENE 03:14:50 85° ESE
Cosmos 1980 Rocket 3.5 03:16:24 27° SE 03:17:36 30° ESE 03:22:26 10° NE
Cosmos 1763 Rocket 4.1 03:17:33 44° ESE 03:17:56 45° ESE 03:22:52 10° NNE
Cosmos 1937 Rocket 4.0 03:13:23 10° N 03:18:29 56° ENE 03:19:45 44° ESE
Geosat 3.9 03:13:47 10° NNE 03:18:39 83° NE 03:18:39 83° NE
Milstar 3 Cent rocket 3.6 03:25:01 25° SE 03:25:01 25° SE 03:28:36 10° ESE
ATLAS CENTAUR R/B 1.9 03:24:30 72° NNW 03:24:30 72° NNW 03:29:16 10° NNE
Cosmos 2227 Rocket 2.1 03:19:17 10° NNW 03:24:42 72° W 03:24:42 72° W
BREEZE-M R/B 4.1 03:24:13 10° NW 03:30:40 85° NE 03:37:26 10° SE
SL-08 R/B 3.9 03:33:19 43° NW 03:33:19 43° NW 03:36:45 10° NNW
ARIANE 5 R/B 2.9 03:28:54 10° NNE 03:33:58 56° E 03:34:57 48° SE
Meteor 2-5 Rocket 3.7 03:28:50 10° NNW 03:34:41 70° W 03:35:17 65° SW
Cosmos 1464 Rocket 4.1 03:34:17 54° WSW 03:34:57 56° W 03:41:11 10° N
BREEZE-M DEB (TANK) 4.2 03:36:01 18° NNW 03:36:25 18° N 03:38:41 10° NE
Resurs 1-4 Rocket 2.9 03:32:01 10° NNE 03:37:03 45° E 03:38:40 35° SE
ADEOS 3.4 03:32:13 10° N 03:37:28 82° WNW 03:37:55 74° SW
ERS-1 4.3 03:33:38 10° NNE 03:38:42 82° ESE 03:39:14 71° S
OAO 1 4.3 03:40:37 71° S 03:40:40 71° S 03:46:07 10° E
Meteor 2-12 Rocket 4.4 03:39:16 49° S 03:40:58 79° E 03:47:02 10° N
Okean 3 Rocket 3.7 03:37:06 10° N 03:40:55 64° NW 03:40:55 64° NW
ISS -1.4 03:41:16 22° N 03:42:33 30° NNE 03:45:27 10° E
Cosmos 2369 4.4 03:42:24 36° WNW 03:43:01 38° WNW 03:48:17 10° N
Cosmos 2297 Rocket 2.1 03:40:37 10° NNW 03:46:14 68° WSW 03:47:02 60° SSW
NPP 4.3 03:41:33 10° N 03:46:29 38° WNW 03:46:51 37° W
UNK 4.5 03:44:43 28° SE 03:46:56 52° ENE 03:51:29 10° N
Cosmos 405 Rocket 4.4 03:47:51 10° NNW 03:49:57 25° NW 03:49:57 25° NW
Spot 4 Rocket 4.0 03:46:57 10° N 03:52:06 68° WNW 03:52:51 59° WSW
Cosmos 1092 Rocket 4.3 03:46:05 10° N 03:52:20 64° E 03:57:06 18° SSE
Cosmos 1378 3.2 03:52:57 10° N 03:56:44 71° E 03:56:49 71° E
Cosmos 1766 3.3 03:57:50 71° NW 03:57:50 71° NW 04:01:32 10° N
IRS-1D 3.3 03:57:09 10° NNE 04:02:08 84° WNW 04:03:24 52° SSW
SL-16 R/B 3.9 03:58:53 12° SSE 04:02:53 26° ESE 04:07:27 10° NE
Cosmos 1076 Rocket 3.4 04:01:51 10° N 04:06:12 88° W 04:07:05 56° S
USA 161 3.9 04:11:10 15° NNW 04:11:10 15° NNW 04:11:50 10° NNW
ERS-2 3.6 04:06:01 10° NNW 04:08:38 26° NW 04:08:38 26° NW
GPS 2-04 Rocket1 2.5 04:11:33 71° S 04:11:36 71° S 04:15:28 10° E
UNKNOWN OBJECT B 2.9 04:10:32 10° NNE 04:14:25 70° E 04:15:21 48° SSE
Meteor 1-24 Rocket 4.0 04:11:02 10° NNW 04:16:37 52° W 04:18:44 35° SSW
Cosmos 1743 Rocket 4.3 04:12:50 10° N 04:17:04 50° E 04:21:02 11° SSE
Cosmos 2142 Rocket 4.4 04:15:56 25° S 04:19:41 85° E 04:25:50 10° N
Cosmos 990 Rocket 4.2 04:17:15 10° NNW 04:22:19 50° WSW 04:24:09 34° SSW
Cosmos 1758 3.2 04:22:23 48° SSW 04:23:26 82° W 04:27:28 10° N
EO 1 Del DPAF 3.1 04:22:38 45° S 04:23:43 74° WSW 04:27:36 10° NNW
Okean O Rocket 2.5 04:21:11 10° NNE 04:25:26 46° E 04:28:33 17° SSE
Cosmos 1441 Rocket 3.4 04:22:31 10° NNW 04:26:26 54° W 04:27:05 47° SW
CZ-4B R/B 4.2 04:21:33 10° NNE 04:26:46 42° E 04:31:51 10° S
Cosmos 1953 2.3 04:26:54 46° SSW 04:27:58 69° W 04:32:02 10° N
Cosmos 1805 3.1 04:27:09 45° SSW 04:28:15 77° W 04:32:11 10° N
USA 81 4.3 04:26:14 16° S 04:30:27 69° E 04:35:42 10° N
Cosmos-2242 3.0 04:29:54 40° SW 04:31:16 62° W 04:35:32 10° N
Cosmos 2279 Rocket 4.4 04:25:25 11° S 04:31:19 64° E 04:37:30 10° NNE
SME Rocket 4.4 04:31:25 28° SSW 04:34:04 46° W 04:41:40 10° NNW
Cosmos 2227 4.4 04:29:52 10° NNW 04:35:40 78° ENE 04:41:24 10° SSE
CZ-2D R/B 2.5 04:32:37 10° N 04:37:51 49° WNW 04:40:28 27° SW
Cosmos 1408 Rocket 4.1 04:34:23 10° NNW 04:38:27 38° W 04:39:34 32° SW
Cosmos 1766 Rocket 4.1 04:37:59 10° NNW 04:42:04 38° W 04:43:27 30° SW
ASTRO E2 4.4 04:44:01 18° S 04:44:01 18° S 04:45:54 10° SSE
DELTA 2 R/B (1) 4.5 04:40:38 23° SSW 04:43:24 37° SSE 04:48:29 10° E
MOZ.5/SAFIR/RUBIN 5/SL-8 4.3 04:39:09 10° SSE 04:43:47 61° ENE 04:48:25 10° N
IRS-1C Rocket 4.1 04:39:27 10° NNE 04:44:44 85° ESE 04:49:02 16° SSW
SL-16 R/B 2.9 04:41:26 21° SSW 04:45:13 42° W 04:51:01 10° NNW
Cosmos 1544 2.9 04:43:51 29° SSW 04:45:38 79° W 04:49:17 10° N
ADEOS II 4.2 04:42:03 10° NE 04:46:12 23° E 04:50:20 10° SSE
MTI 4.1 04:49:25 32° SSW 04:50:29 46° W 04:53:40 10° NNW
In-Cosmos 22 4.2 04:46:57 10° NNW 04:52:04 52° W 04:56:51 12° SSW
Cosmos 1697 Rocket 4.0 04:50:22 18° W 04:53:07 25° WNW 04:57:45 10° N
Cosmos 1125 Rocket 3.4 04:50:13 10° NNW 04:55:21 63° WSW 05:00:27 10° S
Cosmos 1437 3.0 04:52:14 10° NNW 04:55:28 49° W 04:57:16 23° SSW
Cosmos 1655 Rocket 4.0 04:49:21 10° N 04:55:46 78° W 05:02:08 10° S
Meteor 1-21 Rocket 4.4 04:51:13 10° NNW 04:57:04 62° W 05:02:53 10° S
GEOS 3 Rocket 3.7 04:52:27 10° SSE 04:57:33 53° WSW 05:02:36 10° NW
NOSS 3-4 (A) 4.4 04:53:43 10° NW 04:59:57 34° WSW 05:06:27 10° S
NOSS 3-4 (C) 4.4 04:53:48 10° NW 05:00:06 34° WSW 05:06:39 10° S
Cosmos 1980 Rocket 3.1 04:58:11 19° WSW 05:01:27 34° WNW 05:06:35 10° N
Cosmos 332 Rocket 3.9 04:58:17 20° SW 05:01:30 59° WNW 05:06:17 10° N
Cosmos 1842 Rocket 3.7 04:58:16 18° SSW 05:01:32 60° W 05:06:00 10° N
Cosmos 2360 Rocket 3.8 04:57:14 10° SSE 05:02:04 31° ESE 05:06:57 10° NE
ATLAS CENTAUR R/B 4.1 05:02:12 10° WNW 05:04:09 12° NW 05:06:05 10° NNW
Aureole 1 Rocket 4.0 04:59:47 15° SSW 05:04:36 77° WNW 05:12:03 10° NNE
RESURS DK-1 2.4 05:01:41 10° NNW 05:05:50 81° ENE 05:09:57 10° SSE
Cosmos 1674 2.5 05:02:37 10° N 05:06:24 82° W 05:10:08 10° S
CZ-4B DEB 4.2 05:02:06 10° NNE 05:07:41 89° WNW 05:13:11 10° SSW
Okean-O 3.6 05:06:23 10° NNE 05:10:41 47° E 05:14:57 10° S
CZ-2D R/B 4.4 05:06:53 10° N 05:10:49 34° WNW 05:13:44 16° SW
DELTA 2 R/B (2) 3.8 05:09:24 16° WNW 05:11:02 50° N 05:12:49 10° E
ARIANE 5 R/B 4.3 05:09:26 10° NNW 05:12:36 17° WNW 05:15:18 12° W
Cosmos 2322 Rocket 2.2 05:08:13 14° SSW 05:13:07 71° WNW 05:18:45 10° NNE
Resurs 1-4 Rocket 3.6 05:12:43 10° NNW 05:16:33 21° WNW 05:19:45 12° WSW
Cosmos 2026 Rocket 4.3 05:12:23 10° NNW 05:18:23 46° W 05:24:16 10° SSW
ISS -2.3 05:16:10 10° WNW 05:18:53 24° SW 05:21:35 10° S
Cosmos 1461 2.7 05:15:40 10° NW 05:19:44 68° WSW 05:23:38 10° SSE
Cosmos 371 Rocket 3.5 05:16:54 12° SSW 05:21:13 57° WNW 05:25:58 10° N
CZ-3 Stage 3 4.0 04:51:21 10° W 05:24:02 55° SSW 05:29:50 10° SE
Cosmos 1470 3.4 05:21:40 12° SSW 05:25:02 38° W 05:28:45 10° N
Cosmos 540 Rocket 4.3 05:22:45 13° SW 05:26:49 33° WNW 05:31:29 10° N
Thor Agena Rocket 3.6 05:30:25 10° S 05:35:19 53° W 05:40:16 10° NNW
Meteor 2-20 4.4 05:30:28 10° NNW 05:36:31 70° W 05:42:33 10° S
CZ-4B R/B 3.6 05:36:23 10° N 05:39:52 32° WNW 05:43:13 10° SW
USA 116 3.4 05:37:03 10° SSE 05:40:10 79° ENE 05:43:32 10° N
Cosmos 1666 Rocket 4.4 05:36:35 10° N 05:40:54 55° E 05:45:09 10° SSE
Cosmos 2151 3.2 05:37:15 10° NNW 05:41:26 52° W 05:45:35 10° S
SL-16 R/B 2.9 05:41:26 10° SW 05:46:43 40° WNW 05:52:02 10° N
Cosmos 1538 Rocket 4.4 05:42:42 10° SW 05:47:47 49° WNW 05:52:58 10° N
Cosmos 923 Rocket 4.2 05:47:17 10° SSW 05:52:29 80° ESE 05:57:42 10° NNE
